This is the latest recevied weather packets stored in our database for station/object KK4WXG. If no packets are shown the sender has not sent any weather packets the latest 1 day(s).
| Time | Temp. | Humidity | Pressure | Rain* | Wind** | Luminosity | Snow |
|---|---|---|---|---|---|---|---|
| 1836274638 | 19.44° C | 95% | 1018 hPa | 0 mm | 0 m/s | 0 W/m² | - |
| 1836274492 | 19.44° C | 95% | 1018 hPa | 0 mm | 0.45 m/s, 192° | 0 W/m² | - |
| 1836274336 | 19.44° C | 95% | 1018.2 hPa | 0 mm | 0.89 m/s, 48° | 0 W/m² | - |
| 1836274190 | 19.44° C | 96% | 1018 hPa | 0 mm | 0.45 m/s, 211° | 0 W/m² | - |
| 1836274035 | 20° C | 96% | 1017.9 hPa | 0 mm | 0.45 m/s, 84° | 0 W/m² | - |
| 1778037015 | 21.11° C | 43% | 1009.4 hPa | 0 mm | 2.68 m/s, 203° | 0 W/m² | - |
| 1778036713 | 21.11° C | 44% | 1009.5 hPa | 0 mm | 1.79 m/s, 205° | 0 W/m² | - |
| 1778036410 | 21.11° C | 43% | 1009.5 hPa | 0 mm | 2.68 m/s, 203° | 0 W/m² | - |
| 1778036107 | 21.11° C | 43% | 1009.5 hPa | 0 mm | 1.79 m/s, 202° | 0 W/m² | - |
| 1778035803 | 21.67° C | 42% | 1009.6 hPa | 0 mm | 3.13 m/s, 214° | 0 W/m² | - |
| 1778035500 | 21.67° C | 41% | 1009.6 hPa | 0 mm | 5.36 m/s, 203° | 0 W/m² | - |
| 1778035196 | 21.67° C | 42% | 1009.4 hPa | 0 mm | 2.24 m/s, 212° | 0 W/m² | - |
| 1778034893 | 21.67° C | 41% | 1009.7 hPa | 0 mm | 3.13 m/s, 204° | 0 W/m² | - |
| 1778034589 | 21.67° C | 41% | 1009.4 hPa | 0 mm | 2.68 m/s, 201° | 0 W/m² | - |
| 1778034287 | 21.67° C | 40% | 1009.6 hPa | 0 mm | 3.13 m/s, 202° | 0 W/m² | - |
| 1778033985 | 21.67° C | 40% | 1009.5 hPa | 0 mm | 3.13 m/s, 205° | 0 W/m² | - |
| 1778033682 | 21.67° C | 40% | 1009.5 hPa | 0 mm | 4.47 m/s, 206° | 0 W/m² | - |
| 1778033379 | 22.22° C | 39% | 1009.5 hPa | 0 mm | 3.58 m/s, 212° | 0 W/m² | - |
| 1778033077 | 22.22° C | 39% | 1009.6 hPa | 0 mm | 2.68 m/s, 201° | 0 W/m² | - |
| 1778032774 | 22.22° C | 38% | 1009.6 hPa | 0 mm | 3.58 m/s, 208° | 0 W/m² | - |
| 1778032471 | 22.22° C | 39% | 1009.6 hPa | 0 mm | 2.68 m/s, 211° | 0 W/m² | - |
| 1778032168 | 22.22° C | 38% | 1009.4 hPa | 0 mm | 2.68 m/s, 204° | 0 W/m² | - |
| 1778031865 | 22.22° C | 37% | 1009.3 hPa | 0 mm | 3.13 m/s, 206° | 0 W/m² | - |
| 1778031561 | 22.22° C | 38% | 1009.4 hPa | 0 mm | 2.68 m/s, 208° | 0 W/m² | - |
| 1778031260 | 22.22° C | 37% | 1009.5 hPa | 0 mm | 3.13 m/s, 204° | 0 W/m² | - |
* Rain latest hour (hover to see other rain measurements)
** Current wind speed in m/s (hover to see current wind gust speed)